Baqargarh, India

5:27 AM IST on January 25, 2017 (GMT +0530)
Indira Gandhi International | | Change Station

Elev 764 ft 28.57 °N, 77.12 °E | Updated 27 minutes ago

Fog
Fog
57 °F
Feels Like 57 °F
N
4
Wind Variable Wind from East

Today
High -- | Low -- °F
--% Chance of Precip.
Yesterday
High -- | Low -- °F
Precip. -- in
Pressure 30.06 in
Visibility 0.4 miles
Clouds Scattered Clouds 10000 ft
Dew Point 55 °F
Humidity 94%
Rainfall 0.00 in
Snow Depth Not available.
7:13 AM 5:56 PM
Waning Crescent, 9% visible
METAR VIDP 242330Z 08003KT 0600 R28/1800 R29/1800 MIFG SCT100 14/13 Q1018 NOSIG
Pressure 30.06 in
Visibility 0.4 miles
Clouds Scattered Clouds 10000 ft
Dew Point 55 °F
Humidity 94%
Rainfall 0.00 in
Snow Depth Not available.
7:13 AM 5:56 PM
Waning Crescent, 9% visible
METAR VIDP 242330Z 08003KT 0600 R28/1800 R29/1800 MIFG SCT100 14/13 Q1018 NOSIG

Get Your Daily Forecast Email!

Thanks for signing up!

Be on the lookout for a verification email in your inbox.

You'll start receiving the daily forecast at 8 AM.

×

10-Day Weather Forecast

No radar image for this location.
×

Almanac

Astronomy

Jan. 25, 2017 Rise Set
Actual Time
Civil Twilight
Nautical Twilight
Astronomical Twilight
Moon
Length of Visible Light
Length of Day
Tomorrow will be .
, % of the Moon is Illuminated

Today's Extremes

Country Highs Country Lows

Community

WunderPhotos

Upload Photos

1,962,540 photos uploaded!

WunderBlog® & News

Nearby

Air Quality

  Air Quality AQ Index Pollutant
Not available.

Snow Depth

Station Depth Elevation

Earthquake Activity

City Distance Mag. Time & Date
Minimum magnitude displayed is 2.5.

Coastal Water Temperatures

Place Temperature

Stations

Nearby Weather Stations

Station Location Temp. Windchill Dew Point Humidity Wind Precip. Elev Updated Type